Wind_Speed
73 74 74 75 75 76 76 77 78 79 79 80 81 81 82 83 84 85 86 87 89 90 91 92 93 94 95 95 96 96 96 96 96 96 95 95 95 96 95 95 95 94 94 93 93 93 92 91 90 90 91 91 91 91 91 91 91 91 91 92 92 92 93 94 94 92 90 90 89 87 87 87 87 87 87 87 88 89 89 88 88 88 89 89 88
72 72 72 72 72 73 73 74 74 75 75 76 77 77 78 78 79 79 80 80 81 82 83 84 85 86 87 88 89 90 91 91 92 93 93 93 93 93 94 94 94 94 94 93 94 94 93 92 91 91 91 91 91 91 91 91 92 92 92 93 93 93 94 95 96 95 93 93 91 89 89 89 88 87 88 88 88 89 90 90 90 90 90 90 90
71 72 72 72 72 72 72 72 73 73 73 74 74 75 76 76 77 77 77 78 78 78 79 79 80 81 81 82 83 84 84 85 86 87 88 89 89 90 90 91 92 92 93 93 94 94 94 93 92 91 92 91 91 91 91 92 93 93 94 94 94 94 95 96 96 96 96 95 93 91 90 91 89 88 89 89 89 90 91 91 91 91 91 91 91
70 71 71 72 73 73 73 74 74 74 74 74 74 74 75 75 75 76 76 77 77 77 78 78 79 79 79 80 80 80 81 81 82 82 83 84 85 86 86 87 88 89 90 91 92 93 93 92 91 91 91 91 91 91 92 93 94 95 95 95 95 95 95 96 96 97 97 96 95 93 92 92 91 89 89 90 90 91 91 92 92 93 93 93 92
68 69 70 71 72 73 73 74 75 75 76 76 76 76 76 76 76 76 76 76 76 77 77 78 78 79 79 79 80 80 80 80 81 81 81 82 82 83 83 84 84 85 86 87 88 89 89 89 89 89 90 90 91 91 92 93 94 95 95 95 96 96 96 96 96 97 98 97 96 95 95 94 93 91 90 90 90 91 92 92 93 93 94 94 94
68 69 70 71 72 72 73 74 75 75 76 77 77 78 78 78 78 78 78 78 78 78 78 78 78 78 79 79 79 80 80 81 81 81 82 83 83 83 83 83 83 83 84 84 84 85 86 86 86 87 88 88 89 91 92 93 94 95 95 95 96 96 96 96 97 97 98 98 97 96 96 96 95 93 92 91 91 91 92 93 93 94 95 95 95
69 70 71 72 72 73 73 74 75 75 76 77 78 78 79 79 80 80 81 81 80 80 81 81 81 80 80 80 80 80 80 81 81 82 83 83 84 83 83 83 83 83 83 83 83 83 83 84 84 85 87 88 88 90 91 92 93 94 94 95 95 96 96 96 97 98 98 98 98 97 97 97 97 96 93 93 92 92 92 93 94 95 96 96 95
72 72 72 72 72 72 73 73 74 74 75 76 77 77 78 79 79 80 81 81 81 82 82 82 82 82 82 82 82 81 81 81 82 82 83 84 84 84 84 84 84 84 83 83 83 83 83 83 84 84 86 87 88 89 90 91 92 93 93 94 95 95 96 96 97 97 98 98 98 98 97 98 99 97 95 94 93 92 91 93 94 95 96 96 96
73 73 73 73 73 72 72 71 71 72 72 73 73 74 75 76 77 78 79 80 81 81 82 83 83 83 84 83 83 83 83 83 83 84 84 85 85 85 85 86 85 85 84 83 83 83 83 83 83 84 85 86 87 88 89 90 92 92 93 94 95 95 96 96 97 97 98 98 98 98 98 98 99 98 96 95 93 92 91 93 94 95 96 97 97
72 72 71 71 70 69 68 67 67 67 67 68 69 69 70 72 73 74 75 76 77 79 80 81 82 83 84 84 84 84 84 84 84 85 86 86 86 87 87 86 86 86 85 84 83 83 83 83 83 84 85 86 86 88 89 90 91 92 92 93 94 95 96 96 97 97 98 98 98 98 98 98 98 98 97 95 93 92 92 93 94 95 96 97 97
68 66 65 64 64 63 63 63 63 63 64 64 65 66 67 68 69 70 71 72 73 74 76 77 78 79 81 82 83 83 84 84 85 86 86 87 88 89 88 87 87 86 85 85 84 83 83 83 83 83 84 84 85 86 87 88 89 90 91 92 93 94 95 95 96 96 97 97 97 98 98 97 97 96 96 94 92 92 93 94 95 96 96 97 97
62 61 61 61 60 60 60 60 60 60 61 61 62 63 64 65 66 67 68 69 70 71 72 73 74 75 76 77 78 79 80 81 83 84 85 86 88 89 90 89 87 86 85 85 85 84 84 84 84 84 84 84 85 85 85 86 87 88 89 90 91 92 93 94 94 94 95 96 96 96 96 96 95 94 94 94 93 94 94 95 96 97 97 98 97
59 59 59 59 58 58 57 57 57 58 58 59 59 60 61 62 64 65 66 67 68 68 70 71 71 72 73 73 74 74 75 77 79 81 82 83 85 87 89 89 88 86 85 85 85 85 85 85 85 85 85 85 86 85 85 85 86 87 88 89 90 90 91 92 93 94 94 95 96 95 95 94 94 94 94 95 96 96 96 97 98 100 99 98 97
58 58 57 57 57 56 56 56 56 56 57 57 58 59 60 61 62 63 64 64 65 66 67 67 68 69 69 70 70 70 71 73 75 77 78 80 82 84 86 87 86 85 85 85 85 85 85 85 85 85 85 86 86 86 86 86 87 88 89 90 90 91 91 92 93 94 95 96 97 97 96 95 96 95 95 96 98 98 98 98 99 101 100 98 96
57 57 56 56 56 56 55 55 56 56 56 57 57 58 59 60 61 62 62 62 63 63 63 64 64 65 65 66 66 66 67 69 71 73 75 76 78 80 82 82 81 81 81 82 83 83 83 84 84 84 84 84 84 84 85 86 87 88 90 90 90 91 91 92 92 93 95 97 98 98 97 96 97 96 96 97 98 98 98 99 100 100 100 98 97
56 56 55 55 55 55 55 55 55 56 56 57 57 58 58 59 59 60 60 60 60 61 61 61 61 61 62 63 63 63 64 66 68 69 71 72 74 77 77 77 76 76 76 76 77 78 79 80 81 82 83 82 82 81 82 84 85 87 88 89 89 89 89 89 90 92 94 95 96 97 97 96 96 96 96 96 96 97 97 98 98 99 99 97 96
56 55 55 54 54 54 54 54 55 55 56 56 56 57 57 58 58 59 59 58 59 59 59 59 59 59 60 61 62 61 61 63 64 66 66 68 70 72 72 72 72 71 71 71 71 72 73 74 76 78 79 79 78 77 78 80 83 85 87 88 88 88 87 86 87 89 91 93 94 94 94 93 93 93 93 93 93 94 95 95 95 95 95 94 93
55 54 54 53 53 53 53 54 54 55 55 55 56 56 57 57 58 58 58 58 57 57 57 57 57 58 58 59 60 60 59 59 60 61 62 63 65 67 67 67 66 66 66 66 66 66 66 67 69 71 71 71 70 71 72 74 77 80 82 85 87 86 84 83 83 84 85 87 88 89 88 88 88 88 88 87 87 88 89 88 88 88 88 88 86
54 53 52 52 52 53 53 53 54 54 55 55 55 56 56 56 57 57 57 57 57 56 56 56 55 56 56 57 57 57 56 55 55 57 58 59 61 62 63 62 61 61 61 61 61 61 61 61 61 62 62 62 62 63 64 66 69 73 75 78 80 78 75 75 76 77 77 78 79 80 79 79 78 78 78 77 76 77 79 78 78 78 78 78 76
53 52 51 51 52 52 53 53 54 54 55 55 55 56 56 56 56 57 57 57 56 56 55 55 54 54 54 54 53 53 52 51 51 53 54 55 57 58 58 57 57 56 56 56 56 56 55 55 54 54 54 55 56 56 57 59 64 67 70 71 70 67 65 66 67 68 69 70 71 71 71 70 70 70 69 68 67 68 69 69 68 69 68 67 65
52 51 51 51 51 51 52 53 54 54 55 55 56 56 57 56 56 56 57 57 56 56 55 54 53 52 51 51 50 49 48 48 48 49 51 52 53 54 54 53 52 52 52 51 51 51 50 49 48 48 49 51 51 52 54 57 60 63 64 64 62 59 59 60 61 62 64 65 65 65 65 65 65 65 64 63 62 62 63 63 61 61 59 58 56
52 51 50 50 50 51 52 53 54 54 55 56 56 57 57 57 57 57 57 57 57 56 55 54 52 50 49 48 47 45 45 45 46 47 48 49 49 50 50 49 48 49 48 46 46 46 45 44 43 44 47 49 50 51 53 54 56 58 58 57 56 55 57 57 57 58 60 60 60 60 60 61 61 61 60 59 58 57 58 57 55 54 52 51 51
52 51 50 50 50 51 52 53 54 54 55 56 57 57 58 58 58 58 57 57 57 56 55 53 51 48 47 45 44 42 42 43 45 45 46 46 46 45 45 45 44 45 43 42 42 42 41 40 41 43 46 48 48 48 49 50 51 53 53 53 53 53 55 55 54 54 54 55 54 55 56 56 57 57 56 54 53 52 53 52 51 50 49 48 49
51 50 50 50 50 51 52 53 53 54 55 56 57 58 59 59 59 59 58 58 58 57 55 53 51 48 45 43 41 40 39 41 43 44 44 43 43 42 42 41 40 40 39 39 39 39 39 39 40 43 45 45 44 45 46 47 48 49 49 49 49 50 51 51 49 48 48 48 49 50 51 51 52 51 50 49 49 49 49 49 48 48 48 48 48
51 50 50 50 50 51 52 52 53 54 55 56 56 58 59 59 60 60 59 59 58 57 56 54 51 48 44 41 38 37 37 38 40 41 42 41 40 40 39 38 38 37 37 37 37 37 38 38 39 40 41 41 41 43 43 43 44 45 46 46 45 46 46 46 44 42 42 42 44 46 46 46 47 47 47 47 47 47 47 47 47 47 47 47 47
50 50 50 50 50 51 51 52 53 53 54 55 56 57 58 59 60 61 60 60 59 58 56 54 51 47 43 39 36 34 34 35 37 39 39 39 38 38 37 36 36 36 37 36 36 35 36 37 37 37 37 38 39 39 39 39 40 41 43 43 42 41 42 42 40 38 37 39 41 42 42 42 43 44 44 45 46 45 45 46 46 46 46 46 46
49 49 50 50 50 51 51 52 53 53 54 55 55 56 58 59 60 61 61 61 60 58 56 54 51 47 42 38 35 33 32 33 34 36 37 37 36 35 34 34 35 36 36 35 34 33 34 35 35 35 35 35 36 36 36 37 39 40 40 40 40 39 39 39 38 36 36 37 39 39 39 40 41 42 43 44 44 44 44 44 45 45 45 45 45
48 49 49 50 50 51 51 52 53 53 54 54 55 56 58 59 60 61 63 63 62 60 57 55 52 48 42 37 34 32 30 31 32 34 35 35 35 34 33 34 36 36 35 34 32 32 33 33 33 33 32 33 33 34 35 36 36 37 38 38 38 38 37 36 36 35 35 36 37 37 38 39 40 41 42 43 43 43 43 44 44 44 44 44 44
47 48 49 50 50 51 51 52 53 53 53 54 54 55 57 59 60 61 62 63 63 62 59 55 52 47 42 37 33 30 28 28 30 32 33 33 33 32 32 34 36 36 34 32 32 32 31 30 30 31 31 31 31 32 32 33 33 35 36 36 36 36 35 35 35 34 35 35 36 36 37 38 39 41 42 42 43 43 43 43 43 43 43 43 43
46 47 48 49 50 50 51 52 53 53 53 54 54 55 56 58 60 61 62 63 64 63 61 57 53 49 43 37 33 30 27 25 26 28 29 30 30 30 31 34 35 34 33 32 32 31 29 28 28 29 30 30 29 30 30 30 31 33 34 34 34 34 34 34 33 34 35 35 35 36 37 38 40 41 42 43 44 43 43 43 43 43 43 43 43
45 46 47 48 49 50 51 52 53 54 54 54 54 55 55 56 58 60 62 63 63 63 62 59 56 52 47 41 36 31 27 25 24 25 26 26 26 27 30 33 34 32 31 31 32 31 29 27 27 29 29 28 28 28 28 28 29 31 32 32 32 32 32 32 32 33 34 35 35 36 37 39 41 42 42 43 43 43 42 42 42 42 42 42 42
44 45 47 48 49 50 51 52 53 54 54 55 55 55 55 55 56 58 60 62 63 63 62 59 56 53 50 46 40 34 29 25 23 23 23 24 24 25 28 31 32 30 29 29 30 30 28 27 27 28 28 27 27 27 27 27 27 29 30 30 30 30 30 31 32 33 34 35 35 36 37 39 41 42 42 42 42 41 41 41 41 41 41 41 40
43 44 46 47 48 50 51 52 54 55 55 55 55 55 56 56 56 56 57 59 61 62 61 59 56 53 51 48 44 39 33 28 24 21 21 21 21 23 26 29 29 28 28 28 28 28 27 26 27 27 28 27 26 26 26 25 26 27 28 28 28 28 29 30 32 33 34 35 36 36 37 39 40 41 41 41 41 40 40 40 40 40 40 39 39
42 43 45 46 48 49 51 53 54 55 56 56 56 56 56 57 57 56 56 57 58 59 60 58 55 52 50 48 45 41 37 32 28 23 20 19 19 21 24 26 27 27 27 27 26 26 25 25 26 27 27 26 25 25 25 24 25 25 26 26 26 27 28 30 32 33 34 35 35 35 36 37 38 39 40 40 40 39 39 39 39 39 39 39 38
42 43 44 46 47 49 51 53 54 55 56 57 57 56 56 57 57 58 58 57 57 57 58 57 54 51 49 48 45 42 38 34 30 26 23 20 19 20 22 24 25 26 26 25 25 25 25 25 25 26 26 26 25 25 24 24 24 25 25 25 25 26 28 30 31 33 33 33 34 34 35 36 37 38 39 39 38 38 38 38 38 39 39 38 38
42 43 44 45 46 48 50 52 54 56 57 58 58 57 57 57 58 58 58 58 58 58 57 57 54 51 49 47 45 43 39 34 30 27 24 22 20 20 22 23 24 25 25 24 23 23 24 24 24 25 26 25 24 24 24 24 23 24 25 24 25 26 28 30 31 32 32 32 33 33 34 35 36 37 37 37 37 37 38 38 39 39 38 38 39
42 43 44 45 46 48 50 52 54 56 57 58 58 58 57 57 58 58 58 58 58 58 58 57 55 52 49 46 45 43 41 37 32 28 25 22 20 20 21 22 24 24 25 24 22 21 22 23 24 24 25 25 24 24 24 24 23 24 25 25 25 26 28 29 31 31 31 32 32 33 35 35 36 36 36 36 37 38 38 39 39 39 38 39 39
41 42 44 44 45 47 49 51 53 55 56 58 58 59 58 57 57 58 58 58 58 58 58 57 55 52 49 46 44 43 41 39 35 30 26 23 20 19 19 21 22 23 24 24 22 21 21 22 23 24 24 24 24 23 24 24 24 25 26 26 26 26 28 29 30 31 31 32 33 34 35 36 36 36 36 36 37 38 38 39 39 39 39 39 39
41 42 43 44 45 47 48 50 52 55 56 57 58 59 58 58 57 57 58 58 58 58 57 57 56 54 50 47 44 42 41 39 36 33 29 25 22 19 18 19 21 22 23 24 23 21 20 21 23 24 24 23 23 23 23 24 24 25 26 27 27 27 27 29 30 31 32 33 34 35 36 36 36 36 37 37 38 38 38 38 39 39 39 39 39
40 42 43 44 45 46 48 50 52 54 56 57 58 59 59 58 57 57 57 57 57 57 57 57 56 54 52 48 45 43 41 39 36 34 31 28 24 21 19 19 19 20 21 22 23 22 20 20 22 23 23 23 23 23 23 24 25 25 26 28 28 28 28 29 30 32 33 34 35 36 36 37 37 37 37 38 38 38 38 39 39 39 39 39 39
40 41 42 43 45 46 48 49 51 53 56 57 58 59 59 58 58 57 57 57 56 56 56 56 56 55 53 50 47 44 41 38 36 34 31 29 27 24 21 19 19 19 20 21 22 23 21 20 21 23 23 23 23 23 23 24 25 25 26 28 29 29 29 29 30 32 34 35 36 37 37 37 37 38 38 39 39 39 39 39 39 39 39 39 39
39 41 42 43 44 45 47 49 50 53 55 57 58 59 59 59 58 57 56 56 56 56 56 56 55 55 54 51 48 45 43 40 36 34 31 29 28 26 23 21 20 19 19 19 21 22 23 21 21 22 23 23 22 23 24 25 26 26 27 28 30 30 30 30 30 32 34 36 37 37 38 37 38 38 38 39 39 39 39 39 38 38 38 37 37
39 40 41 42 44 45 47 48 50 52 54 56 58 59 59 59 58 57 57 56 56 56 55 55 55 55 54 52 49 47 44 42 38 35 31 29 28 26 25 23 21 20 19 19 20 21 23 22 22 22 22 22 22 23 24 25 26 27 27 28 30 31 31 30 31 32 34 36 37 38 38 38 38 38 39 39 39 39 39 39 38 37 36 36 36
38 39 40 42 43 44 46 47 49 51 54 56 57 58 59 59 59 58 57 56 56 55 55 55 54 54 54 53 51 48 45 43 40 37 33 30 27 26 25 24 23 21 20 20 19 20 22 22 22 22 22 22 23 23 24 25 27 27 28 28 30 31 31 31 31 32 34 36 37 38 39 39 39 40 40 40 39 39 39 39 38 37 36 36 35
38 38 40 41 42 44 45 47 49 51 53 56 57 58 59 59 59 58 57 56 55 55 54 54 54 54 54 53 51 49 46 44 42 39 35 31 28 26 25 25 24 23 22 21 20 20 21 22 22 22 22 22 23 23 24 26 27 28 28 29 30 31 31 31 32 33 34 36 37 38 39 40 40 40 40 40 40 39 39 39 38 38 37 37 36
37 37 39 40 42 43 44 46 48 50 53 55 57 58 59 59 59 58 57 56 55 54 54 54 54 53 53 53 52 50 48 45 43 41 38 34 29 26 25 25 24 24 23 22 21 20 21 22 22 22 22 22 23 24 25 26 28 29 29 29 30 31 32 32 33 34 35 36 37 38 39 40 41 41 41 40 40 40 39 39 38 38 38 38 37
37 37 38 40 41 43 44 46 48 50 53 55 57 58 59 59 59 59 57 56 55 54 54 54 54 53 53 53 52 51 49 46 44 42 39 36 32 28 25 24 24 24 24 23 22 21 21 22 22 22 22 22 23 24 25 26 28 29 30 30 30 31 32 33 33 34 35 36 37 38 39 40 41 41 41 41 41 40 40 39 38 38 37 37 37
36 36 37 39 41 42 44 46 48 50 53 55 57 58 58 59 59 59 58 57 56 54 54 53 54 53 53 53 53 52 50 48 45 43 41 38 34 29 26 24 24 24 24 24 23 22 22 22 23 23 23 23 23 24 25 27 28 29 30 30 31 31 32 33 34 35 36 37 38 38 39 39 40 41 41 41 41 41 40 39 38 38 37 36 36
36 36 37 38 40 42 44 46 48 50 53 55 57 58 59 59 59 59 58 57 56 55 54 54 54 54 53 53 53 52 51 49 47 44 42 39 35 31 27 24 24 24 24 24 24 23 22 22 23 23 23 23 23 24 26 28 29 30 31 31 31 32 32 33 34 35 36 37 37 38 39 39 40 40 41 41 41 40 40 39 38 37 36 35 35
36 36 37 38 40 42 44 46 48 51 53 55 57 58 59 59 59 59 58 57 56 55 54 54 54 54 54 53 53 53 52 51 49 46 43 40 37 32 28 25 23 23 24 25 25 25 23 23 23 24 24 24 24 25 26 28 29 30 31 32 32 32 33 34 35 36 36 37 37 38 39 40 40 40 40 40 40 40 39 38 37 36 35 35 34
36 36 37 38 40 42 44 46 49 51 53 56 57 58 59 59 60 59 58 57 56 55 55 55 55 55 55 54 53 53 53 52 50 48 45 42 38 33 29 26 23 23 24 24 25 26 25 24 24 24 25 24 24 25 27 28 30 31 32 32 33 33 34 34 35 36 36 36 37 38 39 39 40 40 40 40 39 39 38 37 36 35 34 33 33
Wind_Direction
287 286 286 286 285 285 285 284 284 284 283 283 282 282 281 281 280 280 279 279 279 278 278 277 277 277 277 276 276 276 276 275 275 275 275 274 274 273 273 273 272 272 272 271 271 270 270 269 268 267 266 265 264 263 262 261 260 260 259 259 258 258 258 258 259 258 257 257 257 256 257 257 257 258 258 258 258 258 258 258 257 257 257 256 256
288 287 287 286 286 286 286 286 285 285 285 284 284 283 282 281 281 280 280 279 278 278 278 277 277 276 276 276 275 275 275 274 274 274 273 273 272 272 271 271 271 270 269 269 268 268 267 267 266 265 264 263 262 261 260 259 259 258 258 258 257 257 257 258 258 258 257 257 257 256 257 257 257 258 259 259 259 259 258 258 258 258 258 257 257
289 289 288 288 288 287 287 287 286 286 286 285 284 284 283 282 282 281 280 279 279 278 277 277 276 275 275 274 274 273 273 272 272 272 271 271 270 270 269 269 268 267 267 266 265 265 264 264 263 263 262 261 260 259 258 257 257 257 257 257 257 257 257 257 258 258 257 257 257 257 257 257 257 257 258 259 259 259 259 259 258 258 258 258 258
291 290 290 289 289 289 288 288 288 287 287 286 286 285 284 284 283 282 281 280 279 278 278 277 276 275 274 274 273 273 272 272 271 270 270 269 268 268 267 266 266 265 264 263 262 262 261 260 260 259 259 259 258 257 256 256 256 256 256 256 256 256 256 257 257 258 258 257 257 257 257 257 257 257 258 259 259 260 260 259 259 259 258 258 259
294 293 292 291 290 289 289 288 288 287 287 286 286 286 285 285 284 284 283 282 281 280 279 278 277 276 275 274 273 273 272 272 271 271 270 269 268 267 266 265 265 264 263 262 261 260 259 258 257 256 256 256 256 255 255 255 255 255 255 256 256 256 256 257 257 258 258 258 258 258 258 258 258 258 258 259 259 259 260 260 260 260 259 259 259
296 295 293 292 291 290 289 288 287 287 286 286 285 285 285 284 284 283 283 282 281 281 280 279 278 277 276 275 274 273 272 272 271 271 270 269 269 268 267 266 265 264 263 262 262 261 260 259 257 256 256 255 255 254 254 254 254 255 255 255 256 256 256 257 257 258 258 259 259 258 259 259 259 259 259 259 259 260 260 261 261 261 261 260 260
297 296 294 293 292 291 290 289 288 287 286 286 285 284 284 283 283 282 282 281 280 280 279 279 278 277 277 276 275 274 273 272 272 271 270 269 269 268 267 266 265 264 264 263 262 262 261 260 259 258 257 256 255 255 255 254 254 255 255 255 255 256 256 257 257 258 258 259 259 259 259 260 260 260 260 260 260 260 261 261 261 261 261 261 261
299 298 296 295 294 292 291 290 289 289 288 287 286 285 284 283 283 282 281 281 280 279 278 278 277 277 276 275 275 274 273 273 272 271 270 269 269 268 267 266 266 265 264 264 263 263 262 261 260 260 259 258 257 257 256 256 256 255 255 256 256 256 256 257 257 258 259 259 260 260 260 260 261 261 261 261 261 261 261 262 261 261 261 261 261
301 300 298 297 296 295 294 293 292 291 290 289 287 286 285 284 283 282 281 281 280 279 278 277 276 276 275 274 274 273 272 272 271 270 270 269 268 267 267 266 265 265 264 264 264 263 263 262 261 261 260 260 259 258 258 258 257 257 257 257 257 257 257 258 258 259 259 260 260 260 260 261 261 262 261 261 262 262 261 261 261 261 261 261 261
302 300 300 299 298 298 297 296 295 294 293 292 291 290 289 287 286 285 284 283 281 280 279 278 277 275 275 274 273 273 272 271 271 270 269 269 268 267 266 265 265 264 264 264 264 263 263 263 262 261 261 260 260 259 259 259 259 259 258 258 258 258 258 258 259 259 259 260 260 260 261 261 261 262 262 262 262 261 261 261 261 261 261 261 261
303 302 302 302 301 301 300 299 299 298 297 296 295 294 293 292 290 289 287 286 285 283 282 280 279 277 276 275 274 273 272 272 271 270 270 269 268 267 265 264 264 263 263 263 262 262 262 262 262 261 261 261 260 260 260 260 259 259 259 259 259 259 259 259 259 259 259 260 260 260 260 261 261 261 262 262 261 261 260 260 260 260 260 261 261
306 306 305 305 304 303 303 302 302 301 300 300 299 298 297 296 294 293 291 289 288 286 284 283 281 280 278 277 276 275 274 273 272 271 270 269 269 268 266 265 264 263 262 262 261 261 260 260 260 260 260 260 260 260 260 260 260 260 259 259 259 259 259 259 259 259 259 259 259 259 260 260 260 261 261 261 261 260 260 260 260 260 260 260 261
309 309 308 308 307 306 306 305 305 304 304 303 303 302 301 300 298 297 295 293 291 289 287 285 283 282 280 279 278 276 275 274 273 272 271 270 269 269 267 266 265 263 263 262 261 260 260 259 259 259 259 259 259 259 259 259 259 260 260 259 259 259 259 259 259 259 259 259 258 258 259 259 260 260 261 261 261 260 260 260 260 260 260 259 260
312 311 311 311 310 310 309 309 308 307 306 306 305 305 304 303 302 300 299 297 294 292 290 288 286 284 282 281 280 278 277 276 274 273 272 271 270 269 268 267 266 265 263 262 261 261 260 260 259 259 258 258 259 259 259 259 259 259 259 259 259 259 259 259 260 260 260 260 259 259 259 259 259 259 260 260 260 260 260 259 259 259 259 258 258
315 314 314 314 313 313 312 311 311 310 309 308 307 307 307 307 306 304 303 300 298 295 293 291 289 286 285 283 282 280 279 278 276 275 273 272 271 270 269 268 267 266 265 264 263 262 261 261 260 259 259 259 259 259 259 259 259 259 258 258 258 258 258 259 260 260 260 260 260 260 259 259 259 259 259 259 259 259 259 258 258 258 258 257 256
317 317 316 316 316 315 315 314 313 312 311 310 310 309 310 310 309 308 307 304 302 299 297 294 292 289 287 285 284 282 281 280 278 276 274 273 271 270 269 268 268 267 266 265 264 263 262 262 261 260 260 259 259 260 260 260 259 258 258 258 258 258 258 259 259 260 260 260 260 260 260 259 259 258 258 258 258 258 257 257 256 256 256 256 255
319 319 319 319 319 318 318 317 316 315 314 313 312 312 312 312 312 312 311 308 305 303 300 297 294 292 290 288 286 285 283 281 280 278 276 274 273 271 270 269 268 267 266 266 265 264 263 262 262 261 261 260 260 260 260 260 260 260 259 258 258 257 258 259 259 259 259 259 259 259 259 259 258 258 257 256 256 256 256 255 255 256 255 255 254
321 321 321 321 321 321 321 320 319 318 318 317 316 315 315 315 315 315 314 312 309 306 303 300 297 295 292 290 289 287 285 282 280 279 277 275 274 273 271 270 269 268 267 266 265 264 263 262 262 262 262 261 261 260 260 260 261 260 260 259 259 258 258 258 258 258 258 258 258 258 258 258 257 256 256 255 254 254 254 254 254 253 253 253 252
323 323 323 322 323 323 323 323 323 322 322 321 320 319 317 317 317 317 317 316 313 310 307 303 300 298 295 293 291 289 286 284 281 279 277 276 275 273 272 271 270 268 267 266 265 264 263 263 262 263 263 261 260 259 259 259 260 260 260 259 259 259 259 258 257 256 256 256 257 257 256 256 255 254 253 252 251 251 251 251 250 250 250 249 248
324 324 324 324 325 325 325 326 326 326 326 325 324 323 321 320 320 320 320 319 317 314 311 307 304 301 298 296 294 291 289 285 282 280 278 276 275 274 272 271 270 269 267 266 265 264 263 263 263 263 262 261 259 258 257 257 258 259 259 259 260 260 259 257 256 256 255 255 255 255 254 253 251 250 249 248 247 247 248 248 247 247 246 245 244
326 326 325 325 326 327 327 328 329 329 329 329 328 327 325 324 323 323 323 322 321 318 315 311 308 304 302 299 297 294 291 288 284 281 278 277 275 274 273 272 270 268 267 265 265 264 264 263 262 261 260 259 258 257 255 255 257 258 259 261 261 261 259 257 256 256 255 254 253 253 252 250 249 247 246 245 244 244 245 245 245 244 242 240 238
327 327 326 327 328 328 329 329 330 331 332 332 332 331 329 328 327 326 326 325 324 322 319 316 312 309 306 303 300 297 293 289 285 282 279 277 275 274 273 272 270 269 267 266 266 265 264 262 261 259 259 258 256 256 256 256 258 260 261 262 262 261 259 258 256 256 255 254 253 251 249 247 245 244 242 242 241 241 242 241 240 238 237 235 234
329 328 328 328 329 329 329 330 330 331 332 333 334 333 332 331 330 329 328 328 327 325 323 320 317 313 310 306 303 299 295 290 286 283 280 278 276 274 273 271 270 269 269 267 266 264 263 261 259 258 258 258 258 258 259 259 259 260 261 262 261 261 261 260 258 256 255 253 251 248 245 243 241 239 239 239 238 238 236 235 233 233 233 232 232
330 330 329 330 330 329 329 330 330 331 332 333 334 334 334 334 333 332 331 330 330 328 326 323 321 317 313 310 306 301 295 290 286 283 281 278 277 275 273 273 272 271 270 268 265 264 262 260 258 258 259 260 261 260 260 259 259 259 260 260 260 261 261 261 259 256 252 249 246 243 239 237 236 236 235 235 233 231 229 228 228 230 231 231 231
331 331 331 332 331 331 331 331 331 332 332 333 334 334 335 336 336 335 334 333 332 331 329 327 324 321 317 313 308 302 295 289 285 283 281 279 277 276 275 275 274 273 271 268 266 264 263 261 260 260 261 262 261 259 259 258 258 257 258 258 258 258 259 259 256 251 247 243 240 237 235 233 233 233 232 229 227 224 224 225 227 229 229 229 229
332 332 333 334 333 333 333 332 333 333 333 333 333 334 335 336 337 337 336 336 335 333 332 330 328 325 321 316 309 301 294 289 285 282 280 279 277 277 277 277 276 273 270 268 266 266 265 264 263 262 261 260 258 257 257 256 254 254 255 256 256 256 256 255 251 244 240 237 235 233 232 230 230 229 227 225 222 221 222 225 227 227 227 227 228
332 333 334 335 336 335 335 334 334 334 334 334 334 334 334 336 337 338 338 338 337 335 334 332 331 328 325 318 310 303 296 291 286 283 281 279 278 278 278 277 276 274 271 270 269 268 267 266 265 263 260 258 256 255 253 251 250 251 253 254 254 253 251 250 245 238 233 231 231 230 229 227 226 225 223 222 221 221 223 225 226 226 227 227 227
333 334 335 337 337 337 337 336 336 336 336 336 336 335 335 335 337 338 339 339 339 337 336 335 334 332 328 321 312 305 299 293 288 285 282 281 280 279 279 277 275 274 273 273 272 269 267 266 266 264 261 257 255 254 251 250 249 250 250 250 250 249 246 244 239 232 228 227 226 225 225 224 223 223 222 221 221 222 223 224 225 225 226 227 227
332 334 336 338 338 338 338 338 338 338 338 337 338 337 336 336 337 339 340 340 340 339 338 337 335 334 331 323 314 307 300 293 288 285 283 281 280 279 277 275 275 275 275 276 274 271 269 267 265 262 260 257 255 254 252 250 249 249 248 247 245 244 241 238 233 227 224 222 221 220 221 221 221 221 220 220 221 222 223 223 224 224 225 226 227
332 334 336 338 339 339 340 340 339 339 339 339 339 340 339 338 337 338 340 341 341 340 339 338 337 336 334 328 319 310 303 294 287 283 281 279 278 276 273 271 272 273 275 275 274 273 272 269 264 260 258 257 256 254 252 250 249 247 245 243 241 239 236 232 228 223 220 219 218 217 218 218 219 219 219 220 221 222 222 223 223 224 225 226 226
331 333 335 338 339 340 341 341 341 341 341 341 341 341 341 340 339 339 340 341 342 341 340 339 338 337 336 333 326 317 309 301 293 286 281 278 275 272 270 269 270 271 272 272 273 273 272 269 264 260 258 257 256 254 252 249 247 245 242 239 236 233 230 227 223 221 219 218 217 217 217 217 217 218 219 220 221 221 221 222 223 223 224 225 226
329 331 334 337 339 341 342 343 343 343 342 342 342 342 342 342 342 341 340 341 342 342 341 340 339 338 336 334 330 323 316 308 301 293 286 281 275 270 268 269 270 271 271 270 270 271 271 268 263 260 259 258 256 254 252 249 246 242 238 234 230 227 225 222 220 219 218 218 218 217 217 216 217 218 219 220 221 221 221 221 222 222 223 224 224
328 330 332 336 339 340 342 343 344 344 344 343 343 343 343 343 343 343 342 342 342 342 342 341 340 338 336 335 332 327 321 314 307 298 290 284 277 270 269 270 271 271 270 269 268 268 267 264 261 259 259 258 256 254 251 248 243 238 233 229 226 223 221 220 219 218 218 218 218 218 217 217 217 217 218 219 220 221 221 220 220 220 221 221 221
326 328 331 334 337 340 342 343 344 345 345 345 344 344 343 344 344 344 344 343 343 343 342 342 341 339 337 335 332 328 323 318 313 306 297 288 279 271 268 269 270 270 270 269 268 267 264 261 258 257 257 257 255 253 250 246 240 234 229 225 223 221 219 219 219 219 218 218 218 218 217 217 216 216 217 219 219 220 220 219 219 219 218 218 217
324 327 330 333 336 338 340 342 344 345 346 345 345 345 344 344 344 344 344 344 345 345 344 343 342 340 338 336 333 329 324 318 313 309 302 294 285 277 272 270 270 269 268 267 267 266 262 258 256 255 255 255 253 251 249 244 237 230 225 222 221 220 219 219 219 219 219 218 217 217 216 215 215 216 216 217 218 218 218 218 217 217 215 214 214
323 325 328 331 334 337 339 341 343 345 346 346 346 345 345 344 344 345 345 345 345 345 346 345 343 342 340 338 335 331 326 320 314 308 303 297 290 281 276 274 273 271 269 267 265 262 260 257 254 253 253 253 251 249 246 241 235 228 222 219 218 219 219 219 219 219 218 217 216 215 214 214 214 214 215 216 217 217 216 216 215 214 211 210 211
322 324 327 330 332 335 337 339 341 343 345 346 346 346 345 345 345 345 345 345 345 345 346 346 345 343 342 340 337 333 328 323 316 309 303 297 290 281 274 272 272 272 271 270 266 261 258 255 253 251 251 251 249 246 242 238 232 226 220 216 216 218 219 218 217 217 216 215 213 213 212 212 212 213 214 215 215 215 214 213 212 210 208 208 209
321 323 325 328 331 333 335 338 340 342 344 345 346 346 346 345 345 345 345 345 345 345 346 347 346 345 343 341 339 336 331 326 320 313 306 299 291 281 273 269 269 270 270 270 268 262 256 253 252 251 250 249 247 244 239 233 228 223 218 213 212 215 218 217 216 214 213 212 211 211 211 210 210 210 210 211 212 212 211 210 208 207 206 207 207
320 322 324 327 329 331 333 336 338 341 343 345 346 346 346 345 345 345 345 345 345 345 346 347 347 346 345 343 341 338 334 329 323 316 309 303 295 284 273 267 266 267 267 269 269 263 254 250 250 250 249 248 246 242 236 230 224 220 217 213 210 212 216 216 214 212 210 209 209 209 209 209 208 207 207 207 208 208 207 206 206 205 205 205 206
321 323 324 325 327 330 332 334 337 339 342 344 345 346 346 345 345 344 344 345 345 345 345 346 347 347 346 345 343 341 337 332 326 318 310 304 299 290 278 267 264 264 264 265 266 264 256 249 248 249 248 246 244 240 234 227 221 218 216 213 210 210 212 214 213 211 209 207 207 208 208 207 206 205 204 204 204 204 204 204 205 205 205 205 206
321 323 324 325 327 329 331 333 336 338 341 343 344 345 346 345 345 344 344 344 345 345 345 346 347 347 347 346 344 342 340 336 330 322 313 305 299 294 284 272 264 262 261 261 262 262 258 250 246 247 247 246 242 238 232 225 219 215 215 214 211 209 209 211 211 210 208 206 206 206 207 206 205 203 202 202 202 202 202 203 204 205 206 206 206
321 322 324 325 327 329 331 333 335 337 340 342 343 345 345 345 345 344 344 344 344 345 345 345 346 347 347 346 345 344 342 339 334 326 317 307 299 294 288 278 268 263 261 258 257 258 257 252 246 245 246 245 241 235 230 224 218 214 213 213 212 210 208 208 209 209 207 206 205 205 205 204 203 201 200 200 200 201 202 202 203 205 206 206 206
320 322 324 325 327 328 330 332 334 337 339 341 342 344 344 345 345 344 344 344 344 344 344 345 345 346 346 347 346 344 343 341 337 332 323 312 301 293 287 280 271 264 261 259 256 254 253 251 246 244 244 243 239 233 227 222 217 212 211 212 212 211 209 207 206 207 207 206 205 204 203 202 201 199 199 200 200 201 202 202 202 203 204 205 206
320 321 324 326 327 328 330 332 334 336 339 340 342 343 344 344 344 344 344 344 344 344 344 344 344 345 346 346 346 345 343 342 339 335 328 318 306 294 287 280 272 265 260 258 256 254 251 248 245 243 242 241 238 232 225 220 216 212 209 210 211 211 210 207 205 205 205 205 205 203 202 200 199 199 199 199 200 201 202 201 201 202 202 203 205
322 322 324 326 327 329 330 332 334 336 338 340 341 342 343 344 344 344 344 344 343 343 343 343 344 344 345 345 345 345 343 342 340 337 332 324 312 299 288 280 273 264 258 256 255 253 250 247 243 240 240 239 237 231 224 219 214 211 209 208 210 210 210 207 205 203 203 204 204 203 201 199 199 199 199 199 200 201 202 201 201 201 202 202 202
323 323 324 326 328 329 330 332 334 336 338 340 341 341 342 343 343 344 343 343 343 343 343 343 343 343 344 344 345 344 344 342 341 338 335 328 319 306 292 282 273 265 257 253 252 251 249 246 242 239 237 237 235 230 224 218 213 210 208 207 208 209 209 207 205 203 202 202 202 202 201 200 199 199 199 200 200 201 201 202 202 202 203 203 203
324 323 324 326 328 329 331 332 334 336 338 339 340 341 342 342 343 343 343 343 343 343 342 342 342 342 343 343 343 344 343 342 341 339 336 331 323 312 297 284 275 265 256 250 248 248 247 245 242 238 235 235 233 229 223 217 213 209 207 206 206 207 207 206 205 204 202 201 201 200 201 201 200 199 199 200 200 201 201 201 202 203 204 204 204
326 325 325 327 329 330 331 333 335 337 338 339 340 341 342 342 343 343 342 342 342 342 342 342 341 341 341 342 342 342 342 341 340 339 336 332 326 317 303 288 276 267 257 248 244 243 244 243 241 237 234 233 232 228 222 216 212 209 206 205 205 206 206 206 205 204 203 202 200 199 199 199 200 200 200 200 201 201 201 201 202 203 204 205 205
328 327 327 328 329 331 332 334 336 337 338 339 340 341 341 342 342 342 342 342 342 341 341 341 341 341 340 341 341 341 341 341 340 338 336 333 328 320 308 293 278 268 259 249 241 239 240 240 239 236 233 231 230 227 222 216 212 208 205 204 204 204 204 205 205 204 203 202 201 199 198 198 199 200 200 200 201 202 202 202 203 203 204 204 205
330 329 329 330 331 332 333 335 336 338 339 339 340 341 342 342 342 342 342 341 341 341 341 340 340 340 340 340 340 340 340 339 339 337 336 333 328 321 311 297 281 268 259 249 240 236 235 236 236 234 231 229 228 226 221 216 211 208 205 203 203 203 203 204 204 204 204 202 201 199 198 197 198 199 200 201 202 203 203 204 204 204 205 204 204
332 331 331 331 332 333 334 336 337 338 339 339 340 341 342 342 342 342 342 341 341 341 340 340 340 339 339 339 339 339 339 338 337 336 335 332 328 321 313 300 283 269 259 250 240 233 231 232 232 231 229 227 225 224 220 216 211 208 205 203 202 202 202 203 204 204 204 203 201 200 198 197 197 198 199 200 201 203 204 205 205 205 205 205 205
Height
5400 5397 5393 5390 5386 5383 5380 5377 5373 5371 5368 5365 5362 5360 5358 5356 5354 5352 5350 5349 5347 5346 5344 5343 5342 5341 5341 5340 5339 5338 5337 5337 5336 5336 5337 5336 5336 5337 5338 5338 5340 5341 5342 5343 5343 5344 5346 5348 5349 5350 5350 5351 5353 5353 5354 5355 5356 5358 5359 5360 5362 5363 5364 5363 5366 5377 5383 5381 5387 5394 5393 5395 5398 5400 5402 5404 5407 5409 5411 5415 5417 5420 5423 5427 5430
5389 5385 5382 5379 5375 5372 5368 5365 5362 5359 5356 5353 5350 5347 5345 5343 5340 5339 5337 5335 5333 5332 5330 5329 5328 5327 5326 5325 5324 5323 5322 5322 5321 5321 5321 5320 5320 5320 5321 5322 5323 5325 5326 5327 5328 5328 5330 5333 5334 5335 5336 5337 5339 5339 5340 5341 5341 5344 5346 5346 5348 5350 5350 5350 5352 5359 5366 5368 5372 5379 5381 5381 5385 5389 5388 5390 5394 5395 5397 5401 5404 5406 5410 5413 5416
5378 5374 5370 5367 5364 5360 5357 5354 5350 5347 5344 5341 5338 5335 5333 5330 5328 5326 5324 5322 5320 5318 5316 5315 5314 5313 5312 5311 5309 5308 5308 5307 5306 5306 5305 5305 5305 5305 5305 5306 5307 5308 5310 5311 5312 5313 5315 5317 5319 5320 5321 5322 5324 5325 5326 5327 5327 5329 5332 5332 5334 5337 5336 5336 5338 5342 5349 5353 5356 5363 5367 5367 5372 5377 5375 5376 5380 5381 5383 5387 5390 5392 5396 5399 5402
5368 5364 5360 5356 5352 5349 5345 5342 5339 5335 5332 5329 5326 5324 5321 5318 5316 5313 5311 5309 5308 5306 5303 5302 5300 5299 5298 5297 5295 5294 5293 5292 5292 5291 5290 5289 5289 5290 5290 5290 5291 5292 5293 5294 5296 5297 5299 5301 5303 5304 5305 5307 5309 5311 5311 5312 5313 5314 5317 5318 5319 5322 5323 5322 5324 5327 5331 5336 5342 5348 5351 5352 5358 5364 5363 5364 5367 5367 5369 5373 5376 5378 5382 5385 5388
5358 5354 5350 5346 5342 5338 5335 5331 5328 5324 5320 5317 5314 5311 5308 5306 5303 5301 5299 5297 5295 5293 5291 5289 5287 5286 5284 5283 5282 5281 5279 5279 5278 5277 5275 5274 5274 5275 5275 5276 5276 5276 5278 5279 5280 5282 5283 5286 5288 5288 5289 5292 5294 5295 5296 5297 5299 5300 5303 5304 5305 5307 5309 5309 5311 5313 5314 5320 5328 5332 5333 5336 5342 5348 5350 5352 5354 5354 5355 5358 5361 5364 5368 5371 5375
5348 5343 5339 5335 5331 5327 5324 5320 5316 5313 5309 5305 5302 5299 5296 5293 5291 5288 5286 5284 5282 5280 5277 5275 5274 5272 5271 5269 5268 5267 5266 5265 5264 5262 5260 5259 5259 5260 5260 5261 5261 5262 5263 5265 5266 5267 5269 5271 5273 5273 5274 5277 5279 5280 5281 5282 5284 5286 5288 5290 5291 5292 5294 5295 5297 5298 5299 5304 5311 5316 5318 5321 5324 5331 5337 5338 5339 5341 5342 5344 5347 5349 5352 5357 5361
5337 5332 5327 5323 5319 5316 5312 5308 5305 5301 5297 5293 5290 5287 5284 5281 5278 5275 5272 5270 5268 5266 5264 5261 5259 5258 5256 5255 5254 5252 5252 5251 5249 5247 5245 5244 5245 5245 5245 5246 5246 5248 5249 5251 5252 5253 5255 5257 5258 5260 5260 5262 5264 5265 5266 5268 5269 5272 5274 5275 5276 5277 5279 5282 5282 5283 5286 5289 5294 5299 5303 5305 5306 5313 5322 5323 5323 5328 5331 5331 5333 5334 5337 5342 5346
5326 5320 5315 5311 5307 5304 5300 5296 5293 5289 5285 5281 5278 5274 5271 5268 5265 5262 5259 5256 5254 5252 5250 5247 5245 5243 5242 5241 5239 5238 5237 5237 5235 5232 5230 5230 5230 5230 5230 5230 5231 5233 5235 5236 5238 5239 5241 5243 5244 5245 5246 5247 5249 5251 5252 5253 5254 5257 5260 5260 5261 5263 5265 5267 5268 5269 5272 5275 5279 5284 5288 5289 5290 5296 5304 5307 5308 5315 5318 5316 5316 5320 5322 5326 5330
5314 5308 5303 5299 5295 5291 5288 5284 5281 5277 5272 5269 5265 5262 5258 5255 5252 5249 5246 5243 5241 5238 5236 5233 5231 5229 5228 5226 5225 5224 5223 5222 5220 5217 5215 5215 5214 5214 5214 5214 5216 5218 5221 5223 5224 5225 5227 5229 5230 5231 5231 5232 5234 5236 5237 5238 5239 5242 5245 5245 5246 5249 5250 5252 5254 5256 5258 5260 5264 5268 5271 5274 5277 5280 5286 5291 5295 5300 5302 5299 5300 5306 5308 5309 5314
5303 5297 5292 5288 5283 5280 5276 5272 5269 5264 5260 5256 5253 5249 5246 5242 5239 5236 5232 5230 5227 5224 5221 5218 5216 5214 5213 5211 5210 5209 5208 5207 5204 5201 5200 5199 5198 5197 5198 5199 5201 5204 5207 5209 5211 5212 5213 5214 5215 5216 5216 5218 5219 5221 5222 5224 5225 5227 5230 5231 5231 5233 5235 5237 5239 5241 5243 5245 5249 5252 5254 5258 5263 5265 5268 5275 5281 5283 5283 5284 5285 5289 5292 5293 5299
5292 5287 5282 5278 5274 5270 5266 5262 5258 5254 5249 5245 5242 5238 5234 5230 5227 5223 5220 5216 5213 5210 5207 5204 5201 5199 5197 5196 5195 5194 5193 5191 5188 5186 5184 5182 5180 5179 5180 5184 5187 5190 5193 5195 5197 5198 5198 5199 5200 5201 5202 5203 5205 5206 5208 5210 5210 5212 5214 5215 5216 5217 5219 5222 5224 5226 5228 5230 5233 5236 5238 5243 5249 5250 5252 5259 5264 5265 5266 5268 5269 5272 5276 5279 5285
5283 5278 5273 5269 5265 5261 5257 5252 5248 5244 5239 5235 5231 5227 5223 5219 5215 5211 5207 5204 5200 5197 5193 5190 5187 5185 5183 5181 5180 5179 5178 5176 5172 5170 5169 5167 5163 5161 5162 5167 5172 5175 5178 5180 5181 5183 5183 5184 5186 5187 5188 5189 5190 5192 5194 5196 5196 5196 5198 5199 5201 5203 5204 5205 5208 5211 5212 5214 5217 5220 5224 5228 5233 5236 5239 5244 5246 5246 5248 5252 5253 5256 5261 5264 5270
5275 5270 5265 5261 5256 5252 5248 5244 5240 5235 5230 5226 5222 5217 5213 5208 5204 5199 5196 5192 5188 5184 5180 5177 5174 5171 5168 5167 5166 5165 5164 5161 5157 5155 5154 5151 5148 5145 5145 5150 5156 5160 5163 5164 5165 5167 5168 5169 5171 5173 5174 5174 5176 5178 5181 5182 5182 5182 5182 5183 5186 5189 5190 5190 5192 5195 5198 5199 5201 5205 5211 5215 5217 5223 5227 5227 5226 5228 5233 5237 5237 5238 5243 5249 5255
5267 5262 5258 5253 5248 5244 5240 5235 5231 5226 5222 5217 5213 5208 5203 5199 5194 5189 5185 5181 5176 5172 5168 5165 5161 5158 5155 5153 5152 5152 5150 5146 5143 5141 5139 5136 5133 5130 5130 5134 5140 5143 5146 5147 5149 5151 5152 5153 5155 5158 5159 5160 5162 5165 5166 5167 5167 5167 5166 5168 5171 5174 5176 5176 5177 5180 5182 5183 5184 5190 5197 5201 5203 5209 5212 5209 5208 5212 5217 5220 5220 5219 5225 5234 5239
5260 5255 5250 5245 5241 5236 5232 5227 5223 5218 5214 5209 5204 5200 5195 5190 5184 5179 5175 5170 5165 5161 5157 5153 5150 5147 5143 5140 5139 5139 5137 5132 5129 5127 5124 5122 5119 5116 5116 5120 5124 5127 5129 5131 5133 5135 5137 5138 5139 5142 5143 5145 5148 5150 5151 5152 5151 5150 5151 5153 5156 5158 5161 5164 5165 5165 5166 5166 5168 5173 5181 5185 5187 5192 5195 5194 5193 5196 5199 5201 5202 5203 5207 5215 5221
5253 5248 5243 5239 5234 5229 5224 5220 5215 5210 5206 5201 5196 5191 5186 5181 5175 5170 5165 5160 5155 5151 5146 5142 5139 5135 5132 5128 5126 5126 5125 5120 5115 5113 5110 5108 5105 5103 5104 5107 5110 5112 5114 5116 5118 5120 5122 5123 5124 5125 5128 5131 5135 5137 5136 5134 5133 5133 5134 5137 5141 5143 5147 5151 5152 5151 5150 5151 5153 5156 5163 5168 5171 5174 5177 5178 5178 5180 5181 5182 5185 5188 5192 5197 5204
5246 5241 5237 5232 5227 5222 5217 5213 5208 5203 5198 5193 5188 5183 5177 5172 5166 5161 5156 5151 5146 5141 5136 5132 5128 5124 5121 5117 5114 5114 5113 5108 5103 5100 5097 5095 5091 5090 5092 5095 5097 5099 5101 5103 5104 5105 5107 5108 5109 5110 5113 5118 5122 5123 5120 5117 5115 5116 5118 5121 5125 5129 5135 5139 5138 5135 5134 5134 5137 5141 5146 5151 5155 5157 5160 5162 5163 5164 5163 5165 5171 5175 5177 5181 5188
5240 5235 5230 5225 5221 5216 5211 5206 5201 5196 5191 5186 5180 5175 5169 5164 5158 5152 5147 5142 5137 5131 5126 5122 5118 5114 5110 5107 5103 5101 5100 5097 5092 5089 5086 5083 5080 5079 5080 5082 5085 5087 5088 5090 5091 5092 5094 5095 5096 5097 5101 5105 5108 5107 5106 5103 5101 5100 5103 5105 5108 5115 5124 5126 5123 5120 5119 5119 5121 5127 5131 5135 5138 5141 5144 5146 5149 5148 5147 5152 5160 5161 5161 5167 5175
5235 5230 5225 5219 5214 5210 5204 5199 5194 5189 5184 5179 5173 5167 5162 5156 5151 5145 5139 5133 5128 5123 5117 5113 5109 5104 5099 5096 5092 5089 5088 5086 5082 5078 5075 5073 5070 5068 5069 5071 5073 5075 5076 5077 5078 5080 5082 5083 5085 5087 5089 5091 5093 5093 5093 5091 5088 5087 5089 5090 5094 5103 5110 5109 5106 5106 5107 5107 5109 5113 5117 5121 5123 5126 5129 5133 5136 5135 5135 5142 5148 5148 5150 5158 5164
5229 5224 5219 5214 5209 5204 5198 5193 5188 5183 5177 5172 5166 5160 5154 5148 5143 5137 5131 5126 5120 5114 5108 5103 5099 5095 5090 5086 5083 5079 5076 5075 5072 5069 5066 5063 5061 5059 5059 5061 5063 5064 5064 5065 5067 5069 5071 5073 5076 5077 5077 5078 5080 5081 5082 5080 5076 5075 5076 5078 5084 5093 5095 5092 5092 5094 5095 5096 5098 5100 5104 5108 5110 5112 5117 5121 5124 5125 5126 5131 5136 5138 5143 5149 5153
5224 5219 5214 5209 5203 5198 5192 5187 5182 5176 5170 5165 5159 5153 5146 5141 5135 5129 5124 5118 5112 5106 5100 5094 5090 5086 5081 5077 5073 5070 5066 5064 5063 5059 5056 5054 5052 5050 5050 5052 5053 5053 5054 5056 5058 5060 5062 5064 5066 5067 5066 5067 5068 5069 5070 5069 5066 5065 5067 5070 5076 5081 5080 5079 5081 5082 5082 5084 5087 5089 5093 5096 5099 5102 5106 5110 5114 5116 5118 5122 5127 5131 5136 5141 5146
5219 5214 5209 5203 5198 5193 5187 5181 5176 5170 5164 5158 5153 5147 5140 5134 5128 5122 5116 5110 5104 5098 5092 5086 5082 5078 5073 5068 5065 5061 5058 5055 5052 5050 5047 5046 5044 5043 5042 5043 5043 5043 5045 5048 5050 5051 5053 5055 5056 5057 5056 5056 5057 5058 5059 5059 5058 5058 5060 5063 5066 5067 5066 5067 5070 5071 5071 5074 5077 5079 5082 5085 5088 5092 5096 5101 5105 5109 5111 5115 5120 5125 5130 5135 5140
5214 5209 5203 5198 5193 5187 5182 5176 5170 5165 5159 5153 5147 5141 5134 5127 5121 5115 5109 5103 5097 5091 5085 5079 5074 5070 5065 5061 5057 5053 5050 5046 5043 5041 5039 5037 5036 5036 5035 5035 5035 5035 5037 5040 5041 5042 5044 5046 5047 5047 5046 5046 5048 5049 5050 5051 5051 5051 5052 5054 5055 5056 5056 5057 5060 5062 5063 5064 5067 5070 5073 5076 5079 5083 5088 5093 5098 5101 5105 5109 5115 5119 5124 5129 5134
5209 5204 5198 5193 5188 5182 5177 5171 5165 5159 5153 5147 5141 5135 5128 5122 5115 5109 5102 5096 5090 5084 5078 5072 5067 5062 5058 5054 5050 5046 5042 5038 5035 5032 5031 5030 5029 5029 5028 5028 5028 5029 5030 5032 5033 5034 5036 5037 5038 5038 5038 5039 5041 5042 5042 5043 5043 5043 5044 5045 5046 5047 5048 5049 5051 5053 5054 5056 5058 5061 5065 5068 5072 5077 5082 5086 5090 5094 5099 5104 5109 5114 5118 5123 5128
5205 5199 5194 5189 5183 5178 5172 5166 5160 5154 5148 5142 5136 5129 5123 5116 5110 5103 5097 5090 5084 5077 5071 5065 5060 5055 5051 5047 5043 5039 5035 5031 5028 5025 5024 5023 5022 5022 5022 5022 5022 5022 5023 5024 5025 5027 5028 5029 5030 5031 5031 5032 5033 5033 5034 5035 5035 5036 5036 5038 5039 5040 5040 5041 5043 5044 5046 5050 5052 5055 5059 5063 5067 5071 5076 5080 5084 5088 5093 5098 5103 5108 5112 5117 5122
5200 5195 5189 5184 5179 5173 5167 5162 5156 5150 5144 5137 5131 5124 5118 5111 5105 5098 5091 5085 5078 5071 5065 5059 5054 5049 5045 5040 5036 5033 5029 5025 5022 5020 5018 5017 5017 5016 5017 5017 5016 5016 5016 5017 5018 5020 5021 5021 5023 5024 5025 5025 5025 5026 5027 5028 5028 5029 5029 5030 5032 5033 5033 5035 5036 5038 5041 5044 5047 5050 5054 5058 5062 5066 5070 5074 5078 5083 5088 5093 5097 5102 5107 5111 5116
5196 5191 5185 5180 5174 5169 5163 5157 5151 5145 5139 5133 5126 5119 5112 5106 5100 5093 5086 5080 5073 5066 5060 5054 5048 5043 5039 5035 5030 5027 5024 5020 5017 5015 5013 5012 5012 5012 5012 5011 5010 5009 5009 5010 5012 5014 5014 5015 5015 5017 5017 5018 5018 5019 5020 5021 5022 5022 5023 5024 5025 5026 5027 5028 5031 5033 5035 5039 5042 5046 5049 5053 5057 5061 5065 5070 5074 5079 5084 5088 5093 5097 5102 5106 5111
5192 5186 5181 5176 5170 5164 5159 5153 5147 5141 5135 5129 5122 5115 5107 5101 5094 5088 5080 5073 5067 5061 5055 5049 5043 5038 5033 5029 5024 5021 5019 5016 5013 5010 5009 5007 5007 5007 5007 5005 5004 5003 5004 5005 5007 5007 5008 5008 5009 5009 5010 5011 5012 5012 5013 5014 5015 5016 5017 5018 5018 5019 5021 5023 5025 5028 5031 5034 5038 5041 5045 5049 5053 5057 5061 5066 5071 5075 5079 5084 5088 5092 5096 5101 5105
5188 5182 5177 5172 5167 5161 5155 5149 5143 5138 5132 5126 5119 5112 5103 5096 5089 5083 5076 5068 5061 5055 5049 5044 5039 5034 5030 5025 5020 5017 5015 5012 5008 5006 5004 5003 5002 5003 5002 5000 4998 4998 4999 5000 5001 5001 5002 5003 5003 5003 5004 5005 5006 5006 5007 5009 5010 5010 5011 5012 5013 5014 5016 5018 5020 5023 5026 5029 5033 5037 5041 5045 5049 5053 5057 5062 5066 5070 5075 5079 5083 5087 5092 5096 5101
5184 5179 5174 5169 5163 5158 5152 5146 5140 5134 5128 5122 5116 5109 5101 5092 5084 5078 5072 5065 5057 5049 5043 5038 5033 5028 5025 5020 5016 5012 5010 5008 5005 5002 5000 4999 4998 4998 4996 4994 4993 4994 4995 4995 4995 4995 4996 4997 4997 4998 4998 4999 5000 5001 5002 5003 5004 5005 5005 5006 5008 5009 5011 5014 5016 5019 5022 5026 5030 5034 5038 5041 5045 5049 5053 5058 5061 5065 5070 5074 5078 5083 5087 5091 5096
5180 5175 5170 5165 5160 5154 5148 5142 5136 5130 5124 5117 5111 5106 5100 5092 5082 5073 5066 5060 5053 5046 5038 5032 5026 5021 5017 5014 5011 5007 5005 5003 5001 4998 4996 4995 4994 4993 4991 4989 4989 4990 4991 4991 4990 4990 4991 4992 4992 4993 4993 4994 4995 4996 4997 4998 4999 4999 5000 5002 5003 5005 5007 5010 5013 5016 5019 5023 5026 5030 5034 5037 5041 5045 5049 5053 5057 5061 5066 5070 5074 5078 5082 5086 5091
5175 5171 5166 5161 5156 5150 5144 5139 5133 5126 5120 5114 5108 5102 5096 5090 5083 5074 5064 5056 5049 5043 5036 5029 5022 5016 5012 5008 5005 5002 5000 4998 4996 4994 4992 4991 4990 4989 4987 4985 4985 4986 4986 4986 4986 4986 4987 4987 4988 4988 4989 4990 4991 4991 4992 4993 4994 4995 4996 4998 4999 5002 5004 5006 5009 5012 5016 5019 5023 5026 5030 5033 5037 5041 5045 5050 5053 5058 5062 5066 5070 5074 5078 5082 5086
5171 5167 5162 5157 5152 5147 5141 5135 5129 5123 5116 5110 5104 5098 5091 5086 5080 5074 5066 5057 5048 5040 5033 5027 5020 5014 5008 5003 4999 4996 4994 4992 4991 4990 4988 4987 4986 4984 4983 4981 4981 4981 4982 4982 4982 4982 4983 4983 4983 4984 4984 4985 4986 4987 4988 4988 4989 4991 4992 4994 4996 4998 5001 5003 5006 5009 5012 5016 5019 5023 5026 5030 5034 5038 5042 5046 5050 5054 5058 5062 5066 5071 5074 5078 5082
5166 5162 5158 5153 5148 5143 5137 5131 5125 5119 5113 5107 5100 5094 5088 5081 5076 5070 5065 5058 5049 5040 5031 5025 5019 5012 5006 5000 4996 4992 4989 4987 4985 4985 4983 4982 4981 4980 4979 4978 4977 4977 4977 4978 4978 4978 4978 4979 4979 4980 4980 4981 4982 4982 4983 4984 4985 4987 4988 4990 4992 4995 4998 5000 5003 5006 5009 5013 5016 5020 5023 5027 5031 5035 5039 5043 5047 5051 5055 5059 5063 5067 5071 5075 5078
5162 5157 5153 5149 5144 5139 5133 5128 5122 5116 5110 5103 5097 5090 5084 5078 5072 5065 5059 5054 5048 5040 5032 5024 5017 5011 5005 4999 4993 4989 4986 4983 4981 4980 4979 4978 4977 4976 4975 4974 4973 4973 4973 4974 4974 4974 4974 4975 4975 4976 4976 4977 4978 4978 4979 4980 4982 4983 4985 4987 4989 4992 4995 4997 5000 5003 5006 5010 5013 5017 5020 5024 5028 5032 5036 5040 5044 5048 5052 5056 5059 5063 5067 5071 5074
5157 5153 5149 5144 5140 5135 5130 5124 5118 5112 5106 5099 5093 5087 5080 5074 5068 5062 5055 5049 5043 5037 5030 5023 5015 5009 5003 4997 4991 4986 4983 4980 4978 4976 4974 4974 4973 4972 4971 4970 4969 4969 4969 4970 4970 4970 4970 4971 4971 4972 4972 4973 4974 4974 4975 4977 4978 4980 4982 4984 4986 4989 4992 4994 4997 5000 5004 5007 5010 5014 5017 5021 5025 5029 5033 5037 5041 5045 5048 5052 5056 5059 5063 5067 5070
5152 5148 5144 5140 5135 5131 5126 5121 5115 5109 5102 5096 5090 5083 5077 5071 5064 5058 5052 5046 5040 5033 5027 5021 5014 5007 5001 4995 4989 4984 4979 4976 4975 4973 4971 4970 4969 4968 4967 4966 4966 4965 4965 4966 4966 4966 4967 4967 4968 4968 4969 4969 4970 4971 4972 4973 4975 4977 4979 4981 4983 4986 4989 4992 4995 4998 5001 5004 5007 5010 5014 5018 5021 5025 5030 5034 5037 5041 5045 5049 5052 5056 5060 5063 5067
5148 5144 5140 5136 5131 5127 5122 5117 5111 5105 5099 5093 5087 5080 5074 5068 5062 5055 5049 5043 5037 5031 5024 5018 5012 5005 5000 4994 4988 4982 4977 4973 4970 4969 4967 4966 4965 4964 4964 4963 4962 4962 4962 4962 4962 4963 4963 4963 4964 4964 4965 4965 4966 4967 4968 4970 4972 4974 4976 4978 4980 4983 4986 4989 4992 4995 4998 5001 5004 5007 5011 5014 5018 5022 5026 5030 5034 5038 5042 5045 5049 5053 5056 5060 5064
5144 5140 5136 5131 5127 5123 5118 5113 5108 5102 5096 5090 5083 5077 5071 5065 5059 5053 5046 5040 5034 5028 5022 5016 5009 5003 4997 4992 4987 4981 4975 4970 4967 4965 4963 4962 4961 4961 4960 4959 4959 4959 4958 4958 4958 4959 4960 4960 4960 4961 4961 4962 4963 4964 4965 4967 4969 4971 4973 4975 4977 4980 4983 4986 4989 4992 4995 4998 5001 5004 5008 5011 5015 5019 5023 5027 5031 5035 5039 5042 5046 5050 5054 5058 5062
5140 5136 5132 5127 5123 5119 5114 5109 5104 5099 5093 5086 5080 5074 5068 5062 5056 5050 5044 5038 5032 5026 5020 5014 5008 5001 4995 4990 4985 4980 4974 4969 4965 4962 4959 4958 4957 4957 4956 4956 4955 4955 4955 4955 4955 4955 4956 4956 4957 4957 4958 4958 4959 4960 4962 4963 4965 4968 4970 4972 4975 4977 4980 4983 4986 4989 4992 4995 4998 5001 5005 5009 5012 5016 5020 5024 5028 5032 5036 5039 5043 5047 5051 5055 5059
5135 5132 5128 5123 5119 5115 5110 5106 5101 5095 5089 5083 5077 5071 5065 5059 5053 5047 5041 5035 5029 5023 5017 5011 5005 4999 4993 4988 4983 4978 4973 4968 4963 4959 4956 4954 4953 4952 4952 4951 4951 4951 4952 4951 4951 4951 4952 4953 4953 4954 4954 4955 4956 4957 4958 4960 4962 4964 4967 4970 4972 4974 4977 4980 4984 4987 4989 4992 4995 4998 5002 5006 5010 5014 5017 5021 5025 5029 5033 5037 5041 5045 5049 5052 5057
5131 5128 5124 5120 5115 5111 5106 5102 5097 5092 5086 5080 5073 5067 5062 5056 5050 5044 5038 5032 5026 5020 5015 5009 5003 4997 4991 4986 4980 4975 4971 4966 4962 4957 4954 4951 4950 4949 4948 4947 4947 4947 4948 4948 4948 4948 4948 4949 4950 4950 4951 4952 4953 4954 4955 4957 4959 4961 4964 4967 4969 4972 4974 4977 4981 4984 4987 4990 4993 4996 4999 5003 5007 5011 5015 5019 5023 5027 5030 5034 5038 5042 5046 5051 5055
5127 5123 5120 5116 5111 5107 5103 5098 5093 5088 5083 5077 5070 5064 5058 5052 5046 5041 5035 5029 5023 5017 5012 5006 5001 4995 4989 4984 4978 4973 4968 4964 4960 4955 4952 4949 4947 4945 4944 4943 4943 4943 4944 4944 4944 4944 4945 4945 4946 4947 4948 4948 4949 4951 4952 4954 4956 4958 4961 4964 4966 4969 4972 4975 4978 4981 4984 4987 4990 4994 4997 5001 5005 5009 5013 5017 5020 5024 5028 5032 5036 5040 5044 5048 5052
5123 5119 5116 5112 5108 5104 5099 5095 5090 5085 5079 5073 5067 5061 5055 5049 5043 5038 5032 5026 5020 5015 5009 5004 4998 4993 4987 4981 4976 4971 4966 4961 4957 4953 4949 4946 4943 4942 4941 4940 4939 4939 4939 4940 4941 4941 4941 4942 4942 4943 4944 4945 4946 4947 4949 4951 4953 4955 4958 4961 4964 4966 4969 4972 4975 4978 4982 4985 4988 4991 4995 4999 5003 5007 5010 5014 5018 5022 5025 5029 5033 5037 5042 5046 5050
5119 5115 5112 5108 5104 5100 5096 5091 5086 5081 5076 5070 5064 5058 5052 5046 5040 5035 5029 5023 5017 5012 5006 5001 4995 4990 4984 4979 4974 4968 4964 4959 4954 4950 4946 4943 4940 4938 4937 4936 4936 4935 4935 4936 4937 4937 4937 4938 4939 4940 4941 4942 4943 4944 4946 4948 4950 4952 4955 4958 4961 4964 4967 4969 4972 4976 4979 4982 4986 4989 4993 4997 5000 5004 5008 5012 5016 5019 5023 5027 5031 5035 5039 5043 5047
5115 5112 5108 5105 5101 5097 5093 5088 5083 5078 5073 5067 5061 5055 5048 5042 5037 5031 5026 5020 5014 5009 5003 4998 4992 4987 4982 4976 4971 4966 4961 4956 4952 4947 4943 4940 4937 4934 4933 4932 4932 4931 4931 4932 4933 4933 4934 4934 4935 4936 4937 4938 4939 4941 4942 4945 4947 4949 4952 4955 4958 4961 4964 4967 4970 4973 4976 4980 4983 4987 4991 4994 4998 5002 5006 5009 5013 5017 5021 5025 5029 5033 5036 5040 5044
5111 5108 5105 5101 5098 5094 5089 5085 5080 5075 5069 5063 5057 5051 5045 5039 5033 5027 5022 5016 5011 5005 5000 4994 4989 4984 4978 4973 4968 4963 4958 4953 4949 4944 4940 4937 4933 4931 4929 4928 4928 4927 4927 4928 4929 4929 4930 4931 4931 4933 4934 4935 4936 4938 4939 4941 4944 4946 4949 4952 4955 4958 4961 4964 4968 4971 4974 4977 4981 4984 4988 4992 4996 5000 5003 5007 5011 5014 5018 5022 5026 5030 5034 5038 5042
5108 5105 5102 5098 5094 5090 5086 5082 5077 5071 5066 5060 5054 5048 5042 5036 5030 5024 5018 5013 5007 5002 4997 4991 4986 4980 4975 4970 4965 4959 4955 4950 4946 4941 4937 4933 4930 4927 4925 4923 4923 4923 4923 4924 4924 4925 4926 4927 4928 4929 4930 4932 4933 4934 4936 4938 4941 4943 4946 4949 4952 4955 4959 4962 4965 4968 4971 4975 4978 4982 4986 4990 4994 4997 5001 5005 5008 5012 5016 5020 5024 5028 5032 5036 5039
5105 5102 5098 5095 5091 5087 5083 5078 5073 5068 5062 5057 5051 5044 5038 5032 5026 5020 5014 5009 5003 4998 4992 4987 4982 4977 4972 4966 4961 4956 4951 4946 4942 4938 4933 4930 4926 4923 4920 4919 4918 4918 4919 4919 4920 4921 4922 4923 4924 4925 4927 4928 4930 4931 4933 4935 4938 4940 4943 4946 4949 4953 4956 4959 4962 4966 4969 4973 4976 4980 4983 4987 4991 4995 4999 5003 5006 5010 5014 5018 5022 5026 5030 5033 5037
5102 5099 5095 5092 5088 5084 5079 5075 5070 5064 5059 5053 5047 5041 5035 5028 5023 5017 5011 5005 5000 4994 4989 4984 4978 4973 4968 4963 4957 4952 4947 4942 4938 4934 4929 4925 4922 4919 4916 4914 4913 4913 4914 4915 4916 4917 4918 4919 4920 4922 4923 4925 4926 4928 4930 4932 4934 4937 4940 4944 4947 4950 4953 4957 4960 4963 4967 4970 4974 4978 4981 4985 4989 4993 4997 5001 5005 5008 5012 5016 5020 5024 5028 5031 5035
5099 5096 5092 5088 5085 5080 5076 5071 5066 5061 5055 5049 5043 5037 5031 5025 5019 5013 5007 5001 4996 4990 4985 4980 4974 4969 4964 4959 4953 4948 4943 4938 4933 4929 4925 4921 4917 4914 4911 4909 4908 4908 4909 4910 4911 4912 4913 4915 4916 4918 4920 4921 4923 4925 4927 4929 4931 4934 4937 4941 4944 4947 4951 4954 4957 4961 4964 4968 4972 4976 4979 4983 4987 4991 4995 4999 5002 5006 5010 5014 5018 5022 5026 5029 5033